Temp
12 12 12 12 12 12 12 12 12 12 12 12 12 11 11 11 11 11 11 10 10 10 10 10 9 9 9 9 8 8 8 8 8 8 7 7 7 7 7 7 7 6 6 6 6 6 6 6 5 5 5 5 5 5 5 5 5 5 5 5 5 5 5 5 4 4 4 4 4
12 12 12 12 11 11 11 11 11 11 11 11 11 11 11 11 11 11 10 10 10 10 10 9 9 9 9 9 8 8 8 8 7 7 7 7 7 7 7 7 7 6 6 6 6 6 6 6 5 5 5 5 5 5 5 5 5 5 5 5 5 5 4 4 4 4 4 4 4
12 12 12 11 11 11 11 11 11 11 11 11 11 11 10 10 10 10 10 10 10 10 9 9 9 9 9 8 8 8 8 7 7 7 7 7 7 7 7 7 7 6 6 6 6 6 6 6 5 5 5 5 5 5 5 5 5 5 5 5 5 4 4 4 4 4 4 4 3
12 12 12 12 12 12 11 11 11 11 11 11 11 10 10 10 10 10 10 10 10 9 9 9 9 8 8 8 8 8 7 7 7 7 7 7 7 7 7 7 6 6 6 6 6 6 6 6 5 5 5 5 5 4 4 4 4 5 4 4 4 4 4 4 3 3 3 3 3
11 11 11 11 11 11 11 11 11 11 10 10 10 10 10 10 10 10 10 10 9 9 9 9 8 8 8 8 8 7 7 7 7 7 7 7 7 7 6 6 6 6 6 6 6 6 5 5 5 5 5 5 5 4 4 4 4 4 4 4 4 4 3 3 3 3 3 3 3
11 11 11 11 11 10 10 10 10 10 10 10 10 10 10 10 10 9 9 9 9 9 9 8 8 8 8 7 7 7 7 7 7 7 7 7 7 6 6 6 6 6 6 6 5 5 5 5 5 5 5 5 5 5 4 4 4 4 4 4 4 4 3 3 3 3 3 3 3
11 11 11 10 10 10 10 10 10 10 10 10 10 10 10 9 9 9 9 9 9 9 8 8 8 8 7 7 7 7 7 7 7 7 7 7 6 6 6 6 6 5 5 5 5 5 5 5 4 4 4 4 5 5 4 4 4 4 4 4 4 4 3 3 3 3 3 3 3
11 11 11 10 10 10 10 10 10 10 10 10 10 10 9 9 9 9 9 9 8 8 8 8 8 8 7 7 7 7 7 7 7 7 7 6 6 6 6 5 5 5 5 5 5 4 4 4 4 4 4 4 4 4 4 4 4 4 4 4 4 3 3 3 3 3 3 3 3
11 11 10 10 10 10 10 10 10 10 10 10 10 9 9 9 8 8 8 8 8 8 8 8 8 8 7 7 7 7 7 7 7 6 6 6 6 5 5 5 5 5 5 5 4 4 4 4 4 4 4 4 4 4 4 4 4 4 4 4 4 3 3 3 3 3 3 3 3
11 11 10 10 10 10 10 10 10 10 10 10 9 9 9 8 8 8 8 8 8 8 8 8 8 7 7 7 7 7 7 7 6 6 6 6 5 5 5 5 5 5 4 4 4 4 4 4 4 4 4 4 4 4 4 4 4 4 4 4 3 3 3 3 3 3 3 3 3
11 10 10 10 10 10 10 10 10 10 10 10 9 9 9 8 8 8 8 8 8 7 7 7 7 7 7 7 7 7 7 6 6 6 6 5 5 5 5 5 5 4 4 4 4 4 4 5 5 5 5 5 5 4 4 4 4 4 4 3 3 3 3 3 3 3 3 2 2
11 10 10 10 10 10 10 10 10 10 10 10 10 9 9 9 8 8 8 8 8 7 7 7 7 7 7 7 7 7 6 6 6 6 5 5 5 5 5 4 4 4 4 5 5 5 5 5 5 5 5 5 4 4 4 4 4 3 3 3 3 3 3 3 2 2 2 2 2
10 10 10 10 10 10 10 10 10 10 10 10 10 10 9 9 9 8 8 8 8 7 7 7 7 7 7 7 7 6 6 6 6 5 5 5 5 5 4 4 4 5 5 5 5 5 5 5 5 5 5 4 4 4 4 4 3 3 3 3 3 2 2 2 2 2 2 2 2
10 10 10 10 10 10 10 10 10 10 10 10 10 9 9 9 9 8 8 8 8 7 7 7 7 7 7 7 7 6 6 6 5 5 5 5 5 4 5 5 5 5 5 5 5 5 5 5 5 5 4 4 4 4 4 4 3 3 3 2 2 2 2 2 2 2 2 1 1
10 10 10 10 10 10 10 10 10 10 10 10 9 9 9 9 9 8 8 8 7 7 7 7 7 7 7 7 6 6 6 6 5 5 5 5 5 5 5 5 5 5 5 5 5 5 5 5 5 4 4 4 4 4 4 3 3 3 2 2 2 2 2 2 2 1 1 1 1
10 10 10 10 10 10 10 10 10 9 9 9 9 9 9 9 8 8 8 8 7 7 7 7 7 7 7 6 6 6 6 5 5 5 5 5 5 5 5 5 5 5 5 5 5 5 5 4 4 4 4 4 4 3 3 3 2 2 2 2 2 2 2 1 1 1 1 1 1
10 10 10 10 10 10 10 10 9 9 9 9 9 9 9 9 8 8 8 8 7 7 7 7 7 6 6 6 6 6 5 5 5 5 5 5 5 5 5 5 5 5 5 5 4 4 4 4 4 4 4 4 3 3 3 2 2 2 2 2 2 1 1 1 1 1 1 1 1
10 10 10 10 10 10 10 10 9 9 9 9 9 9 9 8 8 8 8 8 7 7 7 7 6 6 6 6 5 5 5 5 5 5 5 5 5 5 5 5 5 5 4 4 4 4 4 4 4 4 4 3 3 3 2 2 2 2 2 1 1 1 1 1 1 1 1 1 1
10 10 10 10 10 10 10 10 9 9 9 9 9 9 9 8 8 8 8 8 7 7 7 7 6 6 6 6 5 5 5 5 5 5 5 5 5 5 5 5 4 4 4 4 4 4 4 3 3 3 3 3 3 3 2 2 2 2 1 1 1 1 1 1 0 0 0 0 0
10 10 10 10 10 10 10 9 9 9 9 9 9 9 8 8 8 8 8 8 7 7 7 6 6 6 6 6 6 5 5 5 5 5 5 5 5 5 4 4 4 4 4 4 3 3 3 3 3 3 3 3 3 3 2 2 2 1 1 1 1 0 0 0 0 0 0 0 0
10 10 10 10 10 10 10 9 9 9 9 9 9 8 8 8 8 8 8 8 7 7 7 6 6 6 6 6 6 6 6 5 5 5 5 5 4 4 4 4 4 4 3 3 3 3 3 3 3 3 3 3 3 2 2 2 1 1 1 1 0 0 -0 -0 -0 -0 -0 -0 -0
10 10 10 10 10 9 9 9 9 9 9 9 8 8 8 8 8 8 8 7 7 7 7 6 6 6 6 6 6 5 5 5 5 5 5 4 4 4 4 4 4 3 3 3 3 3 3 3 3 3 3 2 2 2 2 1 1 1 0 0 -0 -0 -0 -1 -1 -1 -0 -0 -0
10 10 10 9 9 9 9 9 9 9 9 8 8 8 8 8 8 8 8 7 7 7 7 6 6 6 6 6 6 5 5 5 5 5 4 4 4 4 4 3 3 3 3 3 3 3 3 2 2 2 2 2 2 2 1 1 1 0 -0 -0 -1 -1 -1 -1 -1 -1 -1 -1 -0
10 9 9 9 9 9 9 9 9 9 9 8 8 8 8 8 8 8 8 7 7 7 7 7 6 6 6 6 6 5 5 5 5 4 4 4 4 4 3 3 3 3 3 3 3 3 2 2 2 2 1 1 1 1 0 0 -0 -0 -1 -1 -1 -1 -1 -1 -1 -1 -1 -1 -1
9 9 9 9 9 9 9 9 9 9 9 8 8 8 8 8 8 8 8 7 7 7 7 7 7 6 6 6 6 5 5 5 4 4 4 4 4 3 3 3 3 3 3 2 2 2 2 2 1 1 1 1 0 0 -0 -0 -1 -1 -1 -1 -1 -2 -2 -2 -1 -1 -1 -1 -1
9 9 9 9 9 9 9 9 9 9 9 8 8 8 8 8 8 8 7 7 7 7 7 7 6 6 6 6 5 5 5 5 4 4 4 4 3 3 3 3 3 2 2 2 2 2 2 1 1 1 0 -0 -0 -1 -1 -1 -1 -1 -1 -2 -2 -2 -2 -2 -1 -1 -1 -1 -1
9 9 9 9 9 9 9 9 9 8 8 8 8 8 7 7 7 7 7 7 7 7 7 6 6 6 6 6 5 5 5 4 4 4 4 3 3 2 2 3 2 2 2 2 2 1 1 1 0 0 -0 -0 -1 -1 -1 -1 -1 -1 -2 -2 -2 -2 -2 -2 -1 -1 -1 -1 -1
9 9 9 9 9 9 9 8 8 8 7 7 7 7 7 7 7 7 7 7 7 6 6 6 6 6 6 5 5 5 5 5 4 4 3 3 2 2 2 3 2 2 1 1 1 1 0 0 -0 -0 -0 -1 -1 -1 -1 -1 -2 -2 -2 -2 -2 -2 -2 -2 -1 -1 -1 -1 -2
9 9 9 9 9 8 8 8 7 7 7 7 7 7 7 7 7 7 6 6 6 6 6 6 6 6 5 5 5 5 5 5 4 4 3 3 2 2 2 3 2 1 1 1 0 0 -0 -0 -1 -1 -1 -1 -1 -1 -1 -1 -2 -2 -2 -3 -2 -2 -2 -1 -1 -1 -2 -2 -2
9 9 9 9 8 8 7 7 7 7 7 7 7 7 7 7 6 6 6 6 6 6 6 6 6 6 5 5 5 5 5 5 4 4 3 3 3 2 2 3 2 1 0 0 -0 -0 -0 -1 -1 -1 -1 -1 -1 -1 -1 -1 -2 -2 -3 -3 -2 -2 -2 -2 -2 -2 -2 -3 -3
8 8 8 8 7 7 6 6 7 7 7 7 7 6 6 6 6 6 6 6 6 6 5 5 5 5 5 5 5 5 5 4 4 4 3 3 3 2 2 3 2 1 0 0 -0 -0 -1 -1 -1 -1 -1 -1 -1 -1 -1 -2 -2 -3 -3 -3 -2 -2 -2 -2 -2 -3 -3 -3 -4
8 8 7 7 6 6 6 7 7 7 6 6 6 6 6 6 6 6 6 6 6 5 5 5 5 5 5 5 5 5 4 4 4 4 3 3 3 2 2 2 2 1 0 -0 -0 -1 -1 -1 -1 -1 -1 -1 -1 -1 -2 -2 -3 -3 -3 -2 -2 -2 -2 -3 -3 -3 -4 -4 -4
8 7 6 6 6 6 6 6 6 6 6 6 6 6 6 6 6 6 6 6 6 5 5 5 5 5 5 5 5 4 4 4 4 4 3 3 3 2 2 2 1 1 1 -0 -0 -1 -1 -1 -1 -1 -1 -1 -1 -2 -2 -3 -3 -3 -3 -3 -2 -3 -3 -3 -4 -4 -4 -4 -5
6 6 6 6 6 6 6 6 6 6 6 6 6 6 6 6 6 6 6 6 6 5 5 5 5 5 5 5 4 4 4 4 4 3 3 3 3 2 2 2 1 1 1 0 -0 -1 -1 -1 -1 -1 -1 -1 -2 -2 -3 -3 -3 -3 -3 -3 -3 -3 -3 -4 -4 -4 -5 -5 -5
6 6 6 6 6 6 6 6 6 6 6 6 6 6 6 6 6 6 6 6 6 6 5 5 5 5 5 4 4 4 4 4 3 3 3 3 2 2 2 2 1 1 1 0 -0 -0 -1 -1 -1 -1 -1 -2 -2 -3 -4 -4 -4 -4 -4 -3 -4 -4 -4 -4 -4 -5 -5 -5 -5
6 6 6 6 6 6 6 6 6 6 6 6 6 6 6 6 6 6 6 6 6 6 5 5 5 5 5 4 4 4 4 4 3 3 3 2 2 2 2 1 1 1 1 0 -0 -0 -1 -1 -1 -2 -2 -2 -3 -3 -4 -4 -4 -4 -4 -4 -4 -4 -4 -5 -5 -5 -5 -5 -5
6 6 6 6 6 6 6 6 6 6 6 6 6 6 6 5 5 6 6 6 6 6 5 5 5 5 5 4 4 4 4 3 3 3 3 2 2 2 1 1 1 0 0 -0 -1 -1 -1 -1 -2 -2 -2 -3 -3 -4 -4 -5 -4 -4 -4 -4 -4 -5 -5 -5 -5 -5 -5 -5 -5
6 6 5 6 6 6 6 6 6 6 6 6 6 5 5 5 5 5 6 6 6 5 5 5 5 5 4 4 4 4 4 3 3 3 2 2 2 1 1 1 0 -0 -1 -1 -1 -1 -1 -2 -2 -2 -3 -3 -4 -4 -5 -5 -5 -5 -5 -5 -5 -5 -5 -5 -5 -5 -5 -5 -5
5 5 5 6 6 6 6 5 5 5 5 5 5 5 5 5 5 5 6 6 6 5 5 5 4 4 4 4 4 3 3 3 3 2 2 2 2 1 1 0 0 -0 -1 -1 -1 -1 -1 -2 -2 -3 -3 -3 -4 -5 -5 -5 -5 -5 -5 -5 -5 -5 -6 -6 -5 -5 -5 -5 -5
5 5 5 6 5 5 5 5 5 5 5 5 5 5 5 5 5 5 5 5 5 5 5 4 4 4 4 4 3 3 3 3 2 2 2 2 2 1 1 0 0 -0 -1 -1 -1 -1 -1 -2 -2 -3 -3 -4 -4 -5 -5 -5 -5 -5 -5 -5 -6 -6 -6 -6 -6 -5 -5 -5 -5
5 5 5 5 5 5 5 5 5 5 5 5 5 5 5 5 5 5 5 5 5 5 4 4 4 4 3 3 3 3 3 2 2 2 2 2 2 1 1 1 0 -0 -1 -1 -1 -1 -2 -2 -2 -3 -3 -4 -4 -5 -5 -5 -5 -5 -5 -6 -6 -6 -6 -6 -6 -5 -5 -5 -5
Height
839 840 840 841 841 841 841 842 842 842 842 843 843 844 845 846 846 846 846 846 846 846 846 846 846 846 847 847 847 847 848 848 848 849 849 849 849 849 849 849 849 849 848 848 848 848 847 847 847 846 846 846 845 845 845 844 843 843 842 842 841 841 841 841 841 841 840 840 840
840 841 841 841 842 842 842 842 843 843 843 843 843 844 845 845 845 845 845 845 845 845 846 846 846 846 846 846 846 847 847 848 848 848 848 848 848 848 848 848 848 848 848 848 848 847 847 847 846 846 845 845 845 845 844 844 843 843 842 841 841 840 840 840 840 840 840 840 839
842 842 843 843 843 843 843 843 843 843 843 843 843 844 844 845 845 845 845 845 845 845 845 845 845 846 846 846 846 846 847 847 847 848 848 848 848 848 848 848 848 848 848 847 847 847 846 846 846 845 845 844 844 844 844 843 843 842 842 841 840 840 840 840 839 839 839 839 839
843 844 844 844 844 844 844 844 843 843 843 843 843 844 844 845 845 845 845 845 845 845 845 845 845 845 845 846 846 846 846 847 847 847 847 848 848 848 848 848 848 847 847 847 846 846 846 845 845 845 844 844 844 843 843 843 843 842 841 841 840 840 840 839 839 839 838 838 838
844 845 845 845 845 844 844 844 844 843 843 843 843 844 844 845 845 845 845 845 845 845 845 845 845 845 845 845 846 846 846 846 846 847 847 847 847 847 847 847 847 847 847 846 846 845 845 845 845 844 844 843 843 843 843 843 842 842 841 841 840 840 839 839 839 838 838 838 837
844 845 845 845 845 845 845 845 845 844 844 844 844 844 845 845 845 845 845 845 845 845 844 844 844 845 845 845 846 846 846 846 846 847 847 847 847 847 847 846 846 846 846 846 845 845 844 844 844 844 843 843 843 842 842 842 841 841 841 840 840 839 839 838 838 838 837 836 836
844 844 845 845 845 845 845 845 845 845 845 844 844 845 845 845 845 845 845 845 845 845 844 844 844 845 845 845 846 846 846 846 846 847 847 847 846 846 846 846 846 846 845 845 844 844 844 843 843 843 843 842 842 842 841 841 841 840 840 839 839 839 838 838 837 837 836 836 835
843 843 844 844 845 845 845 845 845 845 845 845 845 845 845 845 845 845 845 845 845 845 844 844 844 844 845 845 845 846 846 846 847 847 847 846 846 846 846 845 845 845 845 844 844 843 843 843 843 842 842 841 841 841 840 840 840 839 839 838 838 838 838 837 837 836 835 835 834
842 842 843 843 844 844 844 845 845 845 845 845 845 845 845 845 845 846 845 845 845 845 844 844 844 844 845 845 845 846 846 846 847 847 846 846 846 846 845 845 845 844 844 844 843 843 843 842 842 841 841 840 840 840 839 839 839 838 838 838 838 837 837 837 836 835 835 834 833
842 842 843 843 843 844 844 844 844 844 845 845 845 845 845 845 845 845 845 845 845 844 844 844 844 844 844 845 845 846 846 846 846 846 846 846 846 845 845 844 844 844 843 843 843 842 842 841 841 840 840 839 839 839 838 838 838 838 837 837 837 836 836 836 835 835 834 833 832
842 842 842 843 843 843 843 843 843 844 844 844 844 844 844 844 845 845 845 845 844 844 844 844 844 844 844 845 845 846 846 846 846 846 846 846 846 845 845 844 844 843 843 842 842 841 840 840 839 839 839 838 838 838 837 837 837 837 836 836 836 836 835 835 834 834 833 832 831
842 842 842 843 843 843 843 843 843 843 843 843 843 843 843 843 844 844 844 844 844 844 844 844 844 844 844 845 845 846 846 846 846 846 846 846 845 845 844 844 843 843 842 841 841 840 839 839 839 838 838 838 837 837 836 836 836 836 836 835 835 835 834 834 833 833 832 831 830
842 842 842 842 842 842 842 842 842 842 842 842 842 843 843 843 843 843 843 843 843 843 843 843 843 844 844 845 845 845 846 846 846 846 846 845 845 844 844 843 843 842 841 841 840 839 839 838 838 838 837 837 836 836 836 835 835 835 835 834 834 833 833 833 833 832 832 831 830
842 842 842 842 842 842 842 842 842 842 842 841 842 842 842 842 842 842 842 842 842 842 842 843 843 843 844 844 845 845 845 845 845 845 845 845 844 844 843 843 842 842 841 840 839 839 838 838 837 837 836 836 835 835 835 835 834 834 834 833 833 833 833 833 832 832 831 830 829
841 842 842 842 842 842 842 842 842 842 842 841 841 841 841 842 841 841 841 841 841 841 842 842 843 843 843 844 844 845 845 845 845 845 844 844 844 843 843 843 842 841 840 840 839 838 838 837 837 836 835 835 834 834 834 834 833 833 833 832 832 832 832 832 832 831 830 829 828
841 841 841 841 842 842 841 841 841 842 842 842 841 841 841 841 841 841 841 841 841 841 841 842 842 843 843 843 844 844 844 844 844 844 844 843 843 843 843 842 841 841 840 839 838 838 837 837 836 835 835 834 834 834 833 833 833 832 832 832 832 832 832 832 831 830 829 828 827
840 841 841 841 841 841 841 841 841 842 842 842 842 841 841 841 841 841 841 841 841 841 841 841 842 842 843 843 843 843 843 843 843 843 843 843 843 842 842 841 841 840 840 839 838 837 837 836 836 835 834 834 833 833 833 833 832 832 831 831 831 831 831 831 830 829 828 827 826
840 840 840 840 840 840 840 841 841 841 841 841 841 841 841 841 841 841 841 841 841 841 841 841 841 842 842 842 842 843 842 842 842 842 842 842 842 842 841 841 840 840 839 838 838 837 836 836 835 834 834 833 833 833 832 832 831 831 830 830 831 831 831 830 829 828 827 826 825
839 839 839 839 839 839 839 840 840 840 840 841 841 841 841 841 841 841 840 840 840 840 840 841 841 841 841 841 841 842 841 841 841 841 841 841 841 841 841 840 840 839 838 838 837 836 836 835 834 834 833 833 832 832 831 831 830 830 830 830 830 830 830 829 828 827 826 825 823
838 838 838 838 838 838 838 839 839 839 839 840 840 840 840 841 840 840 840 840 840 840 840 840 840 840 840 840 840 840 840 840 840 840 840 840 840 840 840 839 839 838 838 837 836 836 835 834 834 833 833 832 832 831 830 830 829 829 829 829 829 829 828 828 827 826 825 823 822
837 837 837 837 838 838 838 838 838 838 838 839 839 839 840 840 840 840 839 839 839 839 839 839 839 839 839 839 839 839 839 839 839 839 839 839 839 839 839 838 838 838 837 836 835 835 834 833 833 832 832 831 831 830 830 829 829 828 828 828 828 828 828 827 826 824 823 822 821
836 836 837 837 837 838 838 838 838 838 838 838 838 839 839 839 839 839 839 838 838 838 838 838 838 838 838 838 838 838 838 838 838 838 838 838 838 838 838 838 837 836 836 835 834 833 833 832 832 832 831 831 830 830 829 829 828 828 828 828 827 827 826 825 824 823 822 821 820
836 836 837 837 838 838 838 838 838 838 838 838 838 838 838 838 838 838 838 838 837 837 837 837 837 837 837 837 838 838 838 838 838 838 838 838 838 837 837 837 836 835 834 833 833 832 832 831 831 831 830 830 829 829 828 828 828 827 827 827 826 825 824 823 823 822 821 820 819
835 836 837 837 838 838 838 838 838 838 838 838 838 838 838 838 838 838 837 837 837 836 836 836 836 836 836 836 837 837 836 836 836 836 836 837 836 836 836 835 835 834 833 832 831 831 830 830 830 829 829 829 828 828 828 828 827 827 826 826 825 824 823 822 821 820 819 818 818
835 836 837 837 838 838 838 838 838 838 838 838 838 838 838 838 838 837 837 836 836 836 835 835 835 835 835 835 835 835 835 835 835 835 835 835 835 835 835 834 834 833 833 831 830 830 829 829 828 828 828 828 828 828 827 827 826 826 825 824 823 823 822 821 820 819 818 817 816
835 836 836 837 837 837 837 837 837 838 838 838 838 838 838 837 837 837 836 836 835 835 835 834 834 834 834 834 834 834 834 834 834 834 834 834 834 834 834 833 833 832 831 830 829 829 828 828 828 828 828 827 827 827 826 826 825 825 824 823 822 822 820 819 818 818 817 816 815
835 835 836 836 836 836 836 836 837 837 837 837 837 837 837 837 837 836 836 835 835 834 834 834 834 834 833 833 833 833 833 833 833 833 833 833 833 833 833 833 832 831 830 829 828 828 828 828 827 827 827 827 826 826 825 825 824 823 823 822 821 820 819 818 817 816 816 815 814
834 835 835 835 835 835 836 836 836 837 837 837 837 837 837 836 836 836 835 835 834 834 833 833 833 833 833 833 833 832 832 832 832 833 833 833 833 833 832 832 831 830 828 828 828 828 827 827 827 827 826 826 825 825 824 824 823 822 822 821 820 819 818 818 817 816 815 814 813
834 834 834 834 835 835 836 836 836 837 837 837 836 836 836 836 835 835 835 834 834 833 833 832 832 832 832 832 832 831 831 831 832 832 832 832 832 832 832 831 831 829 828 828 827 827 827 826 826 826 826 825 825 824 823 823 822 821 821 820 819 818 818 817 816 815 814 813 813
833 833 833 834 834 835 836 836 836 836 836 836 835 835 835 835 835 834 834 833 833 833 832 831 831 831 831 831 830 830 830 831 831 831 831 831 831 831 831 831 830 828 827 827 827 827 826 826 826 825 825 824 824 823 823 822 821 820 820 819 818 818 817 816 815 814 813 813 812
833 833 833 833 834 835 835 836 835 835 835 835 835 834 834 834 834 833 833 832 832 831 831 830 830 830 829 829 829 829 829 830 830 830 830 831 830 830 830 830 830 828 826 827 826 826 826 826 825 825 824 824 823 823 822 821 821 820 819 819 818 817 817 816 815 814 813 813 812
832 833 833 833 834 834 834 835 834 834 834 834 834 834 833 833 833 832 832 831 830 830 830 829 829 829 828 828 828 828 829 829 829 829 829 830 830 830 829 829 829 828 826 826 826 826 825 825 824 824 823 823 823 822 822 821 820 819 819 818 818 817 816 815 814 813 813 812 812
833 833 833 833 833 834 834 834 834 833 833 833 833 833 833 832 831 831 830 829 829 829 828 828 828 828 828 828 828 828 828 828 828 828 828 829 829 829 829 829 828 827 825 825 825 825 825 824 824 823 823 823 823 822 821 820 820 819 818 818 817 816 816 815 814 813 813 812 812
833 834 834 834 833 833 833 833 833 833 833 832 832 832 831 831 830 829 828 828 828 828 827 827 827 827 827 827 827 827 827 827 827 827 828 828 828 828 828 828 828 826 825 825 824 824 824 824 824 823 823 823 822 821 820 820 819 819 818 818 817 816 815 814 814 813 813 812 811
834 834 834 834 833 833 833 833 832 832 832 831 831 830 830 829 828 828 827 827 827 826 826 826 826 826 826 826 826 826 826 826 826 827 827 827 827 827 828 828 827 826 824 824 824 824 824 824 823 823 823 822 821 821 820 819 819 818 818 817 816 816 815 814 813 813 812 812 811
833 833 833 833 833 833 832 832 832 831 831 830 829 829 828 828 827 827 826 826 825 825 825 824 824 824 825 825 825 825 825 825 826 826 826 826 826 826 826 827 827 826 824 824 824 824 824 824 823 823 823 822 821 820 819 819 818 818 817 817 816 815 814 814 813 812 812 811 810
833 833 833 832 832 832 832 831 830 830 829 828 828 828 827 827 826 826 825 824 824 824 823 823 823 823 823 824 824 824 824 825 825 825 825 825 825 825 825 826 826 826 824 824 824 824 824 823 823 823 822 821 820 819 819 818 818 818 817 816 815 815 814 813 813 812 811 810 810
832 832 832 832 831 831 830 830 829 828 828 827 827 827 826 826 825 824 824 823 823 823 823 823 823 823 823 823 823 823 823 824 824 825 825 825 824 824 825 825 825 825 824 823 823 823 823 823 823 822 822 821 820 819 818 818 818 817 817 816 815 814 813 813 812 811 811 810 809
831 831 831 831 830 830 829 828 828 827 827 826 826 825 825 824 824 823 823 822 822 822 822 822 822 822 822 822 823 823 823 823 824 824 824 824 824 824 824 824 824 824 824 823 823 823 823 823 822 822 821 820 819 818 818 818 817 817 816 815 814 813 813 812 811 811 810 809 809
830 830 830 829 829 828 828 827 827 826 826 825 825 824 824 823 823 822 822 821 821 821 821 821 821 821 822 822 822 822 823 823 823 823 823 823 823 823 823 823 823 823 823 822 822 822 822 822 822 821 821 820 819 818 818 818 817 816 816 815 814 813 812 811 811 810 809 809 808
830 829 829 828 828 827 827 826 826 825 825 824 824 823 823 822 822 821 821 821 820 820 820 820 821 821 821 821 822 822 822 822 823 823 823 823 823 823 822 822 822 823 822 822 821 821 821 821 821 821 820 819 818 818 818 817 817 816 815 814 813 813 812 811 810 810 809 808 808
Wind_Speed
8 7 7 7 6 6 5 5 6 6 5 5 4 3 3 2 2 1 2 2 2 2 2 1 1 1 2 2 3 3 4 4 5 5 6 6 7 7 7 6 7 7 8 8 8 9 9 8 8 8 8 9 10 12 13 13 13 13 12 11 11 11 11 11 12 13 14 15 16
7 7 7 7 6 6 5 5 5 6 5 4 4 3 3 2 2 1 1 1 1 2 2 1 1 2 2 2 2 3 3 4 5 5 6 6 7 7 7 7 7 8 8 9 10 10 9 9 8 8 8 9 10 11 13 13 14 13 13 12 11 11 11 12 13 13 14 15 16
7 6 6 5 5 5 5 5 5 5 5 4 4 3 3 2 2 1 1 1 1 1 1 1 2 2 2 2 3 3 4 4 5 6 6 6 7 7 7 7 8 8 9 10 10 11 10 10 10 9 9 9 10 11 12 13 14 14 13 13 12 12 12 13 13 14 15 15 15
7 6 5 4 4 4 4 4 4 4 4 4 4 3 3 2 2 1 1 0 1 1 1 1 1 2 2 3 3 4 4 5 5 6 6 7 7 7 7 8 8 9 10 10 11 11 11 11 10 10 10 10 10 11 12 13 13 14 14 13 13 13 13 13 14 14 15 15 16
6 5 4 4 3 3 3 3 3 3 3 3 3 3 2 2 1 1 0 0 0 1 1 1 1 1 2 3 4 4 5 5 6 6 7 7 7 7 7 8 9 9 10 10 11 11 11 11 10 10 10 10 11 12 12 13 13 13 13 13 13 13 13 13 13 14 15 16 17
5 4 3 3 3 2 2 2 2 2 2 3 3 2 2 2 1 0 0 0 0 0 0 1 1 2 2 3 4 5 5 6 6 6 7 7 7 7 8 8 9 9 10 10 10 11 11 11 11 11 11 11 12 13 13 13 13 12 12 13 13 13 14 14 14 15 16 17 17
5 5 4 4 3 2 2 2 2 1 2 2 2 2 2 2 1 1 1 1 1 1 1 2 2 2 3 3 4 5 6 6 6 7 7 7 7 7 8 9 9 10 10 10 10 11 11 11 12 12 12 13 13 13 13 13 13 13 13 14 14 15 15 16 17 17 17 17 18
6 6 5 4 3 3 2 1 1 1 1 1 2 2 2 2 2 2 1 1 2 2 2 2 2 3 3 4 5 6 6 7 7 7 6 7 7 8 8 9 9 9 10 10 10 11 11 12 12 12 13 13 13 13 13 13 13 14 15 15 16 16 16 17 18 18 18 18 18
7 7 6 4 3 3 2 1 1 1 1 1 1 2 2 1 1 1 1 1 2 2 3 3 3 4 4 5 5 6 7 7 7 7 7 7 8 9 9 9 9 10 10 10 11 11 12 12 12 13 13 13 13 13 13 13 14 15 15 16 17 17 17 17 18 18 19 19 19
7 6 5 4 3 3 2 2 2 1 1 1 1 2 2 2 1 1 1 1 2 2 3 4 4 4 5 5 6 7 7 7 7 7 7 8 9 9 10 10 10 10 11 11 12 12 12 12 13 13 13 13 13 14 14 14 14 15 15 16 16 17 17 17 18 18 19 19 20
6 5 5 4 3 3 2 2 3 2 2 2 2 2 2 3 2 2 2 1 2 3 4 5 5 5 6 6 6 7 7 7 7 7 8 8 9 10 10 11 11 12 13 13 13 13 13 12 12 13 13 14 14 14 15 15 15 15 15 16 16 17 17 18 19 19 20 21 22
5 5 4 3 3 2 2 2 3 3 3 3 3 3 3 3 3 3 3 2 2 3 4 5 5 6 6 7 7 7 7 7 7 7 8 9 10 11 12 12 13 13 13 13 13 13 12 12 13 13 14 14 15 15 15 14 15 15 15 16 16 17 18 19 20 20 21 22 23
4 4 3 3 2 2 2 2 2 3 3 4 3 3 3 3 3 3 3 3 3 4 4 5 6 6 7 7 8 8 8 8 8 8 9 10 11 12 13 14 14 14 13 13 12 12 12 13 13 14 15 15 15 14 14 14 14 14 15 16 16 17 19 20 20 21 22 22 22
4 3 3 3 3 2 3 3 3 3 4 4 3 3 3 3 4 4 4 4 3 4 4 5 6 6 7 7 8 8 8 9 9 9 10 12 13 14 14 14 14 13 13 13 13 13 13 13 14 14 15 15 15 14 13 13 13 14 14 16 17 18 19 20 21 21 21 22 22
3 4 4 4 4 4 3 3 3 3 3 3 3 3 4 4 4 5 5 5 4 4 4 5 6 6 7 7 8 8 9 9 10 10 12 13 14 14 14 13 13 13 13 13 13 13 13 13 14 14 15 15 14 14 13 13 13 14 15 16 18 19 20 21 21 21 21 21 22
4 5 5 5 5 5 4 4 3 3 3 3 4 4 5 5 5 5 5 5 5 4 5 5 6 6 6 7 8 9 9 10 11 11 12 13 13 13 13 13 14 14 14 13 13 13 13 14 14 15 15 15 14 13 13 13 13 14 15 17 18 19 20 21 22 22 22 22 23
5 6 6 6 6 5 5 4 3 3 3 4 5 6 6 6 6 6 6 5 5 5 5 5 6 6 7 7 9 10 10 11 11 12 12 12 13 13 13 14 14 14 14 13 13 13 14 14 15 16 16 15 14 13 12 12 13 14 16 17 18 19 20 21 22 22 23 23 23
7 7 8 7 7 6 5 4 4 4 5 5 6 7 7 7 7 7 6 6 6 6 6 6 7 7 7 8 9 11 11 11 12 12 12 12 13 13 14 14 14 14 13 13 13 14 15 15 16 16 16 15 13 12 12 12 13 15 16 18 19 20 21 22 22 23 23 24 24
8 8 8 8 7 5 5 4 5 5 6 6 7 7 8 8 8 8 8 7 7 7 7 7 7 7 8 9 10 11 11 11 11 11 11 12 13 13 14 14 14 14 13 13 14 14 15 16 16 16 15 14 13 12 12 13 14 16 17 18 19 20 21 22 23 24 24 24 24
9 9 8 7 6 5 5 5 6 6 6 7 7 8 8 9 9 9 9 9 8 8 8 8 8 8 9 10 11 12 12 11 11 11 11 12 12 13 14 14 14 14 13 14 14 15 15 15 15 15 14 14 13 13 13 14 15 17 18 19 20 21 22 23 24 24 24 24 24
9 8 6 5 4 5 5 6 7 7 6 7 7 8 9 9 10 10 10 10 9 9 8 8 9 9 10 11 12 12 12 11 11 11 11 12 12 13 14 14 14 14 14 14 14 14 14 14 13 14 14 14 14 14 15 15 16 17 18 19 21 22 23 23 24 24 24 24 23
8 6 4 4 4 6 7 7 7 7 7 7 8 9 9 10 10 10 10 10 10 10 10 10 10 11 11 12 12 12 12 11 11 11 12 12 13 13 14 14 14 14 14 14 14 13 13 13 13 13 13 14 14 14 15 16 17 18 19 20 22 22 23 23 23 23 23 23 22
5 3 3 4 6 7 8 8 8 8 8 8 9 9 10 10 11 11 11 11 10 10 11 11 11 11 11 11 11 11 11 11 11 12 12 13 13 14 14 13 13 13 14 13 13 13 13 13 13 12 12 12 13 13 14 15 16 18 20 21 22 23 22 22 22 22 22 22 22
2 3 4 6 7 8 9 9 9 9 9 10 10 10 10 11 11 12 12 11 11 11 11 11 11 11 11 11 11 11 11 11 12 12 13 13 14 14 13 13 13 13 13 13 13 14 13 13 12 11 10 10 11 12 13 15 17 18 20 21 22 22 22 22 22 22 21 21 21
3 4 6 7 8 9 9 9 9 10 10 10 10 11 11 12 12 12 12 12 12 12 12 12 12 12 12 12 12 12 12 12 12 13 13 13 13 13 12 11 12 12 11 12 13 13 13 12 10 9 9 9 10 12 14 16 17 19 20 21 21 21 22 22 22 21 21 20 20
4 6 7 8 9 9 9 9 10 10 10 11 11 11 12 12 13 13 13 13 13 13 13 13 13 13 13 13 12 12 12 12 12 12 12 12 12 11 10 10 11 10 10 10 12 11 11 9 9 8 9 10 12 14 16 17 19 20 20 20 20 20 21 21 21 21 21 20 19
5 7 7 8 8 9 9 9 9 10 10 11 11 12 12 13 13 14 14 15 15 14 14 14 14 14 14 14 13 13 12 12 12 12 11 10 10 9 9 9 9 8 8 9 9 9 8 8 8 9 11 13 15 17 18 19 20 20 20 19 19 19 20 20 21 21 20 19 17
6 7 7 8 8 9 9 9 9 10 10 11 12 12 13 14 14 15 15 15 15 15 15 15 15 15 15 14 14 13 12 12 11 10 9 8 8 8 8 9 8 7 7 7 7 7 7 7 9 11 14 16 18 19 20 20 21 20 19 18 18 18 19 19 20 19 18 17 16
6 7 8 8 8 8 8 8 9 9 10 11 12 13 14 14 15 15 16 16 16 16 16 16 16 15 15 14 13 12 12 11 11 10 8 8 7 7 7 9 7 5 4 6 6 6 7 9 12 14 16 18 20 21 21 21 21 19 18 17 17 17 18 18 18 18 17 16 15
7 7 8 8 7 7 8 8 9 9 10 11 13 14 15 15 16 16 16 16 16 16 16 17 16 16 15 14 13 12 11 11 11 10 8 7 7 7 7 9 8 5 4 5 5 7 9 11 14 16 18 20 21 22 22 21 20 18 17 16 16 17 17 18 17 16 16 16 16
7 7 7 6 6 7 7 8 9 10 11 12 13 14 15 16 17 17 17 17 17 17 17 17 17 16 15 14 12 11 10 10 11 10 9 7 7 7 8 9 7 5 3 4 5 8 10 13 15 17 19 21 22 22 22 20 18 16 15 16 16 17 17 16 16 16 16 16 16
7 6 5 5 6 6 7 9 10 11 12 13 14 15 16 17 18 18 18 18 18 17 17 17 16 16 15 13 11 10 10 10 11 10 9 8 8 7 7 8 6 5 4 5 7 10 13 15 17 19 20 22 22 22 20 18 15 15 15 15 15 15 15 15 15 15 15 15 15
5 5 5 5 6 7 8 10 11 12 13 14 15 16 17 18 19 19 18 18 18 17 17 17 16 15 14 12 11 10 10 10 10 10 9 8 8 7 7 7 5 5 6 8 11 14 16 17 19 20 21 22 22 20 18 15 14 14 14 14 14 14 14 14 15 15 15 14 14
6 5 5 6 7 8 10 11 12 13 14 15 16 17 18 19 19 19 19 18 18 17 17 16 15 14 12 11 9 9 9 9 9 9 8 8 7 6 6 6 4 5 8 11 14 16 17 18 20 21 21 21 20 18 15 13 12 13 13 13 13 13 14 14 14 14 13 13 13
5 6 7 8 9 10 11 12 13 14 15 16 17 18 19 19 19 19 19 19 18 18 17 15 14 12 11 10 9 8 8 9 8 8 7 6 6 6 5 5 4 6 10 13 15 17 18 19 19 20 20 20 18 15 13 11 12 12 12 13 13 13 13 13 13 13 13 12 12
5 6 8 9 10 11 12 13 14 15 17 18 19 19 19 19 18 18 19 19 19 18 16 15 13 11 10 9 8 8 8 8 8 7 7 6 5 5 5 5 4 7 11 14 15 16 17 17 18 19 19 18 16 13 11 10 11 11 12 12 12 13 13 13 13 12 12 12 12
6 7 9 10 11 13 14 15 16 17 18 19 19 19 18 18 18 18 19 19 18 17 15 13 11 9 8 8 8 8 8 7 7 7 6 6 6 6 5 4 4 7 11 13 14 15 15 16 17 18 18 16 14 11 10 10 10 11 11 12 12 13 13 13 12 12 12 12 12
7 8 10 11 13 14 15 17 17 18 18 18 18 18 17 17 18 18 18 18 17 15 13 10 8 7 7 8 8 8 8 7 7 6 6 6 6 5 5 4 5 6 8 11 12 13 14 15 16 17 16 14 12 10 9 9 10 11 11 12 12 12 12 12 12 12 12 12 12
9 10 11 13 15 16 17 17 18 18 18 17 17 17 17 17 18 18 18 17 15 12 10 7 6 7 7 8 8 8 7 7 6 6 6 6 6 6 6 5 6 6 7 9 11 12 13 13 15 15 15 13 11 9 8 9 10 10 11 12 12 13 12 12 12 12 12 12 11
11 12 13 15 16 17 17 17 17 17 17 17 16 16 17 17 18 18 18 15 12 9 7 7 7 8 8 8 8 7 7 7 6 6 6 6 6 7 7 6 6 5 6 9 10 11 12 12 13 14 14 13 11 9 8 8 9 10 11 12 12 13 13 12 12 12 12 12 12
12 14 15 16 16 16 16 16 16 16 16 16 16 16 17 17 18 18 15 12 8 7 6 7 8 8 8 8 7 7 7 7 7 7 7 7 7 8 8 7 6 5 6 8 9 10 11 12 12 13 14 14 12 9 7 8 9 10 11 12 12 13 13 13 13 12 12 12 12
Wind_Direction
121 122 123 121 120 119 122 127 125 120 114 111 110 110 111 108 100 102 111 122 119 108 91 74 50 27 10 2 357 352 345 335 327 322 318 315 311 305 300 299 301 303 305 306 305 305 303 303 303 306 309 312 312 310 307 304 303 301 300 300 301 303 306 310 313 314 314 313 313
119 123 127 127 127 129 132 134 132 129 125 124 121 119 116 110 99 92 98 117 124 120 107 83 55 30 8 355 345 339 333 326 318 315 313 310 307 303 300 298 300 302 304 306 305 304 301 299 298 299 302 305 306 306 304 303 304 305 305 306 308 310 311 312 311 310 309 308 307
111 114 119 125 131 135 138 139 138 134 129 124 122 124 125 122 116 107 102 126 138 133 113 92 61 32 9 349 335 326 318 313 309 306 304 303 301 300 300 301 303 304 306 307 307 306 303 300 298 297 298 300 301 301 301 302 303 306 308 310 311 312 311 309 307 305 304 302 302
102 102 108 116 123 129 130 130 128 124 119 117 118 122 128 131 130 131 145 170 163 140 117 92 60 26 356 336 323 314 307 303 300 297 295 294 295 296 299 302 305 306 308 309 309 309 308 306 303 301 300 299 299 297 296 297 299 302 304 307 309 309 308 305 303 302 301 300 300
97 98 103 108 108 112 113 114 113 114 116 118 121 125 131 132 132 132 159 225 187 148 128 89 23 345 329 321 312 306 301 297 294 291 290 289 292 295 299 304 306 308 309 310 311 312 313 313 311 307 304 301 298 295 292 293 294 296 299 302 304 305 303 301 300 299 299 299 299
110 114 121 124 119 115 117 121 123 126 129 131 132 131 125 118 108 76 2 317 312 304 288 290 309 312 313 311 306 303 299 295 292 290 289 291 295 300 305 307 309 310 311 311 312 314 316 318 316 311 306 302 298 295 293 293 293 295 298 302 303 303 302 300 300 299 299 298 298
141 146 148 148 143 140 143 147 152 154 153 149 140 126 108 86 60 24 352 327 314 303 292 287 293 296 299 301 302 301 298 294 291 290 291 295 301 305 308 309 308 309 310 311 312 312 313 314 311 307 302 298 296 295 295 297 298 300 302 305 305 305 304 303 302 301 300 298 297
158 156 152 149 148 150 153 154 158 167 174 164 143 123 104 82 53 19 350 325 312 300 294 290 290 288 292 297 298 298 295 291 289 290 294 300 305 307 307 306 305 305 306 307 307 307 306 305 301 298 295 293 293 294 296 300 302 304 306 307 307 306 305 304 303 302 300 298 298
157 153 149 147 149 155 165 167 167 179 198 179 147 136 127 110 57 8 341 322 309 303 300 296 293 291 292 295 295 293 291 288 288 291 297 303 305 305 304 302 301 301 301 301 300 298 297 295 292 291 290 290 291 293 296 300 303 306 307 307 307 306 305 303 303 302 302 302 303
157 153 152 155 162 174 186 193 193 198 207 207 194 189 206 226 234 235 266 302 309 308 304 298 294 291 291 291 291 289 287 285 287 293 299 303 304 303 302 300 299 297 295 293 291 291 290 290 289 289 290 291 293 295 298 301 304 306 308 308 308 307 306 306 306 307 307 308 309
159 158 160 165 176 193 207 211 209 208 213 219 222 223 227 230 227 224 234 275 308 313 308 300 294 289 286 287 286 286 285 286 289 294 299 302 302 301 300 297 295 292 289 287 287 288 289 290 291 293 294 295 297 299 301 303 306 308 308 309 309 310 311 312 313 312 311 311 310
162 163 168 175 185 206 223 228 226 229 234 239 242 243 243 241 235 232 237 266 301 312 309 302 294 288 284 283 283 283 284 285 288 293 297 299 300 298 296 292 289 286 286 288 290 293 294 295 296 297 298 299 300 301 303 305 307 308 309 311 313 316 317 318 317 316 313 311 309
164 173 183 190 203 221 239 244 247 251 253 255 254 254 260 262 254 245 244 258 287 305 308 304 298 290 285 283 281 282 282 284 286 290 294 296 296 293 291 287 285 285 288 293 298 300 301 300 300 300 300 302 302 303 304 306 308 310 313 316 319 321 321 319 318 315 313 311 308
174 193 206 213 223 235 246 250 253 256 258 261 260 260 262 266 263 256 250 254 272 292 302 303 299 293 288 286 285 284 284 285 286 289 291 292 291 289 287 286 287 291 296 300 303 304 304 303 303 303 304 305 305 306 307 310 313 316 320 323 324 323 320 318 315 314 312 311 310
192 213 223 226 233 240 246 247 249 255 266 276 277 273 268 266 264 259 253 252 260 276 290 296 295 293 291 291 292 291 290 289 289 289 289 288 288 288 289 291 295 299 303 304 305 306 306 307 308 309 309 309 308 309 311 315 319 323 325 326 325 322 318 315 313 312 311 310 310
213 224 228 231 235 240 243 245 248 259 278 288 288 282 277 271 269 264 258 254 258 267 278 284 286 288 291 294 296 297 295 292 290 288 287 288 289 292 296 300 302 304 305 305 306 308 310 311 313 313 313 311 311 311 314 317 321 325 326 325 323 319 316 313 311 310 309 309 308
228 231 231 232 235 239 242 245 251 264 277 283 285 285 283 280 277 272 267 262 261 264 270 274 277 282 287 291 293 294 293 290 287 286 287 290 294 298 301 303 304 304 305 306 309 312 313 314 314 313 312 311 310 311 313 317 321 324 325 324 321 317 314 311 309 308 307 306 305
234 233 233 233 235 238 243 249 257 267 274 280 285 288 289 288 285 281 276 271 268 267 268 269 271 275 281 287 288 287 286 284 283 284 287 292 296 299 301 302 302 303 305 308 312 313 314 313 313 311 309 308 308 308 312 316 320 323 323 322 319 315 312 309 307 306 305 304 303
234 233 232 232 234 239 246 255 265 272 278 284 289 292 294 293 291 286 282 277 273 270 268 267 267 270 276 281 284 283 281 281 281 284 288 292 296 298 300 300 301 303 306 308 310 310 310 309 308 308 307 307 307 309 312 317 320 321 321 320 317 314 311 308 306 304 303 302 302
233 232 231 233 236 246 256 265 272 277 283 289 293 295 295 295 293 289 285 280 276 273 269 266 266 270 275 279 281 282 283 283 285 288 291 294 297 298 299 299 300 302 304 306 306 306 305 305 306 306 307 308 309 311 314 317 318 319 318 317 315 313 310 307 305 303 302 302 301
231 231 234 240 252 264 270 273 275 279 284 290 293 295 295 294 292 289 285 281 277 272 268 266 267 270 274 278 280 282 284 286 289 292 294 296 297 296 296 297 298 299 301 303 303 304 304 304 305 305 307 308 309 311 314 315 316 317 316 315 313 311 308 306 304 303 302 302 301
230 234 245 265 277 279 278 276 276 279 284 289 293 294 295 294 293 290 287 282 277 272 268 266 266 268 271 274 277 280 283 286 289 292 294 295 294 293 293 294 295 297 300 301 301 301 302 302 302 302 303 305 307 309 312 314 315 316 315 314 312 309 307 305 304 303 302 302 302
233 252 278 289 286 282 279 278 279 282 286 290 293 294 295 295 294 293 289 285 280 274 270 267 266 267 269 272 275 278 282 285 288 290 291 292 291 291 292 293 295 298 301 300 299 298 299 298 298 298 300 303 306 309 311 313 315 316 315 313 311 308 306 304 303 302 302 302 302
267 294 294 289 284 282 281 283 285 288 291 293 295 296 298 297 296 295 293 289 286 281 278 275 273 273 274 275 276 279 282 285 288 289 290 289 290 291 292 294 296 301 303 300 299 300 299 296 295 296 299 303 308 311 313 315 317 316 315 313 310 307 305 303 302 302 302 302 303
312 299 289 284 281 280 282 285 289 291 294 296 299 300 300 300 300 299 298 296 293 290 287 285 283 282 281 280 280 281 283 286 288 288 288 288 288 290 292 294 298 303 305 302 302 300 297 294 292 296 303 310 316 318 319 320 319 317 315 312 309 306 304 303 302 302 303 303 304
301 289 282 278 277 279 282 286 291 295 299 301 302 303 303 304 304 305 303 301 298 296 293 290 288 287 286 284 283 283 284 284 285 286 286 287 289 291 294 297 303 304 302 298 297 296 293 292 294 302 313 323 328 329 327 325 322 319 316 312 308 305 304 303 303 304 305 306 307
288 280 276 275 276 279 284 290 296 301 304 304 305 305 305 306 307 307 306 304 301 298 295 292 290 288 287 286 285 283 282 282 282 283 284 287 289 292 296 302 307 303 296 294 292 291 291 295 305 316 327 334 337 336 333 329 324 321 317 312 308 305 304 303 305 306 308 310 312
278 275 275 276 279 283 290 297 303 306 307 306 306 306 306 306 306 306 304 302 300 297 294 291 289 288 287 285 283 280 279 279 281 285 287 288 287 288 294 304 312 305 291 290 290 294 303 315 325 332 337 339 339 338 335 331 326 322 317 312 308 305 305 306 307 310 313 317 320
275 275 276 279 284 292 300 307 309 309 308 307 306 305 305 305 304 303 300 299 297 295 293 291 289 288 286 283 280 277 277 280 285 291 293 291 287 287 294 303 316 310 285 285 294 310 325 333 336 338 338 339 339 337 335 331 327 323 318 312 308 306 307 309 312 316 320 325 327
274 274 278 285 297 307 312 312 308 306 306 306 306 306 305 304 301 299 296 294 293 292 291 290 290 288 286 282 279 277 279 284 290 295 296 293 289 291 297 304 317 315 290 291 309 327 335 338 338 338 339 339 338 337 334 331 329 325 318 312 309 309 311 314 319 323 327 328 328
273 278 288 303 317 319 313 306 304 304 305 306 307 306 305 302 298 294 292 289 289 288 288 289 289 288 286 283 280 279 282 289 295 298 298 293 290 292 300 308 319 325 321 318 333 340 341 340 340 340 340 339 337 334 333 332 330 324 317 313 312 314 317 323 327 329 329 329 329
283 298 318 332 327 314 305 302 303 305 306 307 307 305 302 298 295 291 288 286 286 287 287 287 287 286 284 282 279 279 284 291 296 299 298 293 289 293 304 315 322 330 339 343 348 347 344 343 341 339 337 335 333 332 332 333 330 323 317 315 317 319 323 328 330 331 330 330 330
322 341 345 333 316 306 304 305 306 307 308 306 303 300 298 295 292 289 286 285 286 286 286 286 285 284 281 278 277 278 283 288 293 296 295 292 291 297 309 322 325 330 337 342 346 346 344 341 337 334 332 330 330 332 335 335 329 323 320 320 321 324 327 329 330 330 330 329 328
357 350 333 317 310 309 309 309 309 309 306 302 298 295 293 292 290 288 287 286 287 287 287 285 284 282 278 275 274 278 284 288 291 292 291 289 292 299 312 325 320 324 331 337 340 339 336 332 329 327 327 328 330 334 337 334 328 324 323 324 325 327 328 329 329 329 328 327 326
346 327 317 315 315 315 313 312 309 306 301 296 292 290 288 288 288 287 288 289 290 290 289 286 283 278 274 271 273 280 286 291 292 290 287 286 289 296 306 316 308 313 322 327 329 328 325 322 322 324 326 329 333 338 339 333 328 326 327 327 327 328 328 329 328 327 326 324 324
322 318 319 321 319 316 312 309 304 299 294 289 287 286 286 286 286 286 288 290 292 292 290 286 281 276 273 274 279 284 287 289 289 289 288 288 289 293 298 301 294 306 314 319 319 318 317 317 320 323 327 331 337 342 341 334 330 328 328 328 328 328 329 328 327 326 324 323 323
316 321 322 320 315 310 305 300 295 290 287 285 285 285 285 286 286 286 288 290 292 292 289 284 278 276 278 284 289 291 289 286 287 291 295 296 294 292 289 287 285 303 312 313 311 310 311 315 321 327 331 336 343 346 343 336 331 329 329 329 328 328 328 328 327 326 325 324 323
323 323 319 313 306 300 295 290 288 286 286 286 287 287 287 287 287 287 289 291 291 290 286 282 281 285 292 297 297 294 290 285 286 293 302 306 301 291 280 275 283 296 302 300 299 301 306 314 324 331 337 343 349 351 346 337 332 330 329 329 328 328 328 328 327 326 324 324 323
323 318 311 303 296 290 287 285 285 286 288 289 290 290 289 289 288 289 290 291 290 288 286 289 296 302 305 304 301 295 289 284 284 294 306 313 307 293 280 277 284 285 282 282 285 291 301 314 328 337 344 349 355 356 350 338 331 329 329 329 328 328 327 327 326 325 324 323 323
316 309 300 293 288 285 285 285 287 288 290 291 292 292 291 290 290 290 292 292 291 289 291 298 304 306 306 304 299 294 288 283 283 289 300 307 304 298 291 285 285 276 267 269 275 284 298 315 330 342 349 354 359 1 354 339 331 329 329 330 329 327 326 326 326 325 324 324 324
306 298 291 287 285 285 286 288 288 289 291 292 292 292 291 290 290 291 293 294 294 294 299 303 305 304 301 298 293 287 283 280 280 283 289 293 296 296 294 288 280 265 256 260 271 284 299 315 329 341 350 355 0 3 357 340 332 330 329 328 327 326 325 324 325 325 325 326 326